Stations météo

réclame
Mon MeteoGroup
K14A, Pays-Bas (6204): Température de l'air & dewpoint: 09.07.2020 01:00:00 - 15.07.2020 01:00:00 (CEST)K14A, Pays-Bas (6204): Vitesse du vent & gusts: 09.07.2020 01:00:00 - 15.07.2020 01:00:00 (CEST)K14A, Pays-Bas (6204): Direction du vent: 09.07.2020 01:00:00 - 15.07.2020 01:00:00 (CEST)K14A, Pays-Bas (6204): reduced air pressure: 09.07.2020 01:00:00 - 15.07.2020 01:00:00 (CEST)K14A, Pays-Bas (6204): visibility: 09.07.2020 01:00:00 - 15.07.2020 01:00:00 (CEST)
Date & Time tt [°C] td [°C] ff [km/h] ff [knt] fx [km/h] fx [knt] dd ppp [hPa] vv [km]
15.07.2020 01:00:00 14,1 9,6 16 9 22 12 - 1015,4 10
15.07.2020 00:00:00 14,2 9,9 21 11 25 14 - 1015,3 10
14.07.2020 23:00:00 14,3 9,4 15 8 22 12 - 1015,2 10
14.07.2020 22:00:00 14,3 8,9 13 7 29 16 - 1015,2 10
14.07.2020 21:00:00 14,5 9,9 15 8 25 14 - 1015,2 10
14.07.2020 20:00:00 14,3 9,6 16 9 29 16 - 1015,2 10
14.07.2020 19:00:00 14,4 9,7 18 10 29 16 - 1015,1 10
14.07.2020 18:00:00 14,1 9,8 21 11 32 18 - 1015,2 10
14.07.2020 17:00:00 14,5 9,9 28 15 32 18 WNW 1015,5 10
14.07.2020 16:00:00 14,4 10,0 26 14 29 16 WNW 1015,6 10
14.07.2020 15:00:00 14,5 10,5 11 6 25 14 W 1015,7 10
14.07.2020 14:00:00 14,8 11,5 15 8 25 14 W 1015,8 10
14.07.2020 13:00:00 14,9 12,0 15 8 25 14 WNW 1015,5 10
14.07.2020 12:00:00 15,0 12,1 18 10 22 12 - 1015,7 10
14.07.2020 11:00:00 15,1 12,1 22 12 25 14 - 1015,7 10
14.07.2020 10:00:00 15,2 11,8 21 11 25 14 - 1015,6 10
14.07.2020 09:00:00 15,5 12,3 16 9 22 12 - 1015,5 10
14.07.2020 08:00:00 16,0 14,0 15 8 18 10 W 1015,2 10
14.07.2020 07:00:00 16,3 14,4 16 9 25 14 - 1015,5 10
14.07.2020 06:00:00 15,8 13,8 15 8 36 19 W 1015,5 10
14.07.2020 05:00:00 15,7 14,8 35 19 36 19 W 1015,9 9
14.07.2020 04:00:00 15,8 15,4 28 15 29 16 WSW 1016,3 10
14.07.2020 03:00:00 15,7 15,4 26 14 25 14 WSW 1016,8 10
14.07.2020 02:00:00 15,6 15,3 24 13 29 16 - 1017,1 10
14.07.2020 01:00:00 15,8 15,1 37 20 36 19 - 1017,8 10
14.07.2020 00:00:00 15,9 14,8 29 16 29 16 WSW 1018,3 10
13.07.2020 23:00:00 16,1 14,2 24 13 29 16 - 1018,6 10
13.07.2020 22:00:00 16,4 13,7 31 17 32 18 - 1018,9 10
13.07.2020 21:00:00 16,4 13,7 31 17 32 18 - 1019,1 10
13.07.2020 20:00:00 16,3 13,5 29 16 32 18 - 1019,6 24
13.07.2020 19:00:00 16,4 13,5 29 16 32 18 - 1020,0 24
13.07.2020 18:00:00 16,8 13,1 34 18 32 18 - 1020,3 10
13.07.2020 17:00:00 16,6 13,2 35 19 32 18 - 1021,1 10
13.07.2020 16:00:00 16,4 13,1 34 18 32 18 - 1021,8 10
13.07.2020 15:00:00 16,3 13,3 35 19 36 19 - 1022,3 10
13.07.2020 14:00:00 16,2 13,4 37 20 36 19 - 1022,9 10
13.07.2020 13:00:00 16,1 13,6 35 19 36 19 - 1023,5 10
13.07.2020 12:00:00 16,0 13,7 35 19 32 18 - 1023,9 10
13.07.2020 11:00:00 16,0 13,5 34 18 32 18 - 1024,3 10
13.07.2020 10:00:00 16,0 13,5 31 17 32 18 - 1024,5 10
13.07.2020 09:00:00 15,8 12,9 29 16 29 16 - 1024,8 10
13.07.2020 08:00:00 15,6 12,6 22 12 25 14 SSW 1025,3 10
13.07.2020 07:00:00 15,3 12,2 24 13 25 14 - 1025,8 10
13.07.2020 06:00:00 15,3 11,6 21 11 22 12 - 1025,9 10
13.07.2020 05:00:00 15,2 11,3 14 8 18 10 - 1026,2 50
13.07.2020 04:00:00 15,1 11,2 16 9 18 10 S 1026,8 10
13.07.2020 03:00:00 15,2 11,9 16 9 18 10 - 1027,1 10
13.07.2020 02:00:00 15,0 12,0 13 7 14 8 - 1027,4 10
13.07.2020 01:00:00 15,2 11,7 15 8 14 8 - 1027,7 10
13.07.2020 00:00:00 15,3 11,4 15 8 14 8 - 1028,1 10
12.07.2020 23:00:00 15,4 11,7 15 8 14 8 - 1028,6 10
12.07.2020 22:00:00 15,5 12,3 13 7 14 8 - 1028,5 10
12.07.2020 21:00:00 16,1 12,2 11 6 11 6 - 1028,5 10
12.07.2020 20:00:00 15,9 11,8 13 7 14 8 - 1028,8 10
12.07.2020 19:00:00 16,0 11,6 13 7 14 8 - 1029,1 10
12.07.2020 18:00:00 15,9 11,1 11 6 11 6 - 1029,1 10
12.07.2020 17:00:00 15,6 11,7 11 6 14 8 WSW 1029,4 10
12.07.2020 16:00:00 15,3 12,2 15 8 18 10 WSW 1029,7 10
12.07.2020 15:00:00 15,5 12,3 16 9 18 10 - 1029,9 10
12.07.2020 14:00:00 15,4 11,5 21 11 18 10 - 1030,1 10
12.07.2020 13:00:00 15,5 11,3 18 10 18 10 - 1030,0 10
12.07.2020 12:00:00 15,2 11,8 16 9 14 8 - 1029,7 10
12.07.2020 11:00:00 14,9 11,6 13 7 14 8 WSW 1029,6 10
12.07.2020 10:00:00 14,9 11,2 13 7 14 8 WSW 1029,6 10
12.07.2020 09:00:00 15,9 11,5 16 9 18 10 W 1029,2 10
12.07.2020 08:00:00 15,8 10,9 13 7 22 12 W 1028,7 10
12.07.2020 07:00:00 14,7 10,5 18 10 22 12 W 1028,6 10
12.07.2020 06:00:00 14,7 11,1 18 10 18 10 W 1028,2 10
12.07.2020 05:00:00 15,1 10,5 18 10 22 12 W 1028,0 10
12.07.2020 04:00:00 14,4 10,4 18 10 22 12 W 1028,2 10
12.07.2020 03:00:00 15,1 10,6 18 10 18 10 W 1028,3 10
12.07.2020 02:00:00 14,2 10,0 18 10 22 12 W 1028,3 10
12.07.2020 01:00:00 14,2 10,0 11 6 18 10 W 1028,4 10
12.07.2020 00:00:00 14,3 10,2 8 4 14 8 - 1028,4 10
11.07.2020 23:00:00 14,3 9,7 11 6 14 8 - 1028,3 10
11.07.2020 22:00:00 14,6 10,3 15 8 18 10 - 1028,1 10
11.07.2020 21:00:00 14,8 10,2 18 10 22 12 - 1027,6 10
11.07.2020 20:00:00 14,7 10,1 21 11 22 12 - 1027,4 10
11.07.2020 19:00:00 14,8 9,8 24 13 25 14 - 1027,0 10
11.07.2020 18:00:00 14,8 10,6 24 13 29 16 - 1026,6 10
11.07.2020 17:00:00 14,5 10,8 18 10 25 14 - 1026,6 40
11.07.2020 16:00:00 14,3 10,7 22 12 32 18 WNW 1026,5 10
11.07.2020 15:00:00 14,2 10,7 22 12 32 18 WNW 1026,0 29
11.07.2020 14:00:00 14,4 10,8 29 16 32 18 WNW 1025,8 10
11.07.2020 13:00:00 14,6 11,0 26 14 29 16 W 1025,3 10
11.07.2020 12:00:00 15,8 11,5 22 12 25 14 W 1024,9 10
11.07.2020 11:00:00 14,8 10,5 22 12 22 12 W 1024,2 10
11.07.2020 10:00:00 15,2 10,4 16 9 18 10 W 1023,8 10
11.07.2020 09:00:00 14,5 10,0 15 8 18 10 W 1023,5 10
11.07.2020 08:00:00 15,2 10,1 11 6 22 12 W 1022,8 35
11.07.2020 07:00:00 14,6 9,7 13 7 18 10 W 1022,7 10
11.07.2020 06:00:00 13,9 9,0 14 8 22 12 W 1022,3 47
11.07.2020 05:00:00 13,9 9,4 21 11 25 14 WNW 1021,8 10
11.07.2020 04:00:00 13,9 9,2 21 11 25 14 W 1021,7 10
11.07.2020 03:00:00 13,9 9,0 18 10 25 14 W 1021,7 49
11.07.2020 02:00:00 14,3 8,9 22 12 25 14 W 1021,5 10
11.07.2020 01:00:00 13,9 8,3 18 10 25 14 W 1021,2 10
11.07.2020 00:00:00 14,0 8,7 21 11 25 14 WNW 1021,0 10
10.07.2020 23:00:00 14,0 8,5 21 11 22 12 W 1020,8 10
10.07.2020 22:00:00 14,6 8,2 18 10 22 12 W 1020,2 10
10.07.2020 21:00:00 14,6 8,7 15 8 18 10 W 1020,0 10
10.07.2020 20:00:00 14,6 8,7 11 6 18 10 - 1019,5 10
10.07.2020 19:00:00 14,5 8,1 13 7 18 10 - 1019,2 10
10.07.2020 18:00:00 14,4 8,3 15 8 22 12 - 1018,9 10
10.07.2020 17:00:00 14,1 7,7 18 10 25 14 - 1018,2 10
10.07.2020 16:00:00 14,1 7,8 22 12 25 14 - 1017,8 10
10.07.2020 15:00:00 14,0 8,1 21 11 22 12 - 1016,9 10
10.07.2020 14:00:00 13,9 7,9 21 11 22 12 - 1016,5 10
10.07.2020 13:00:00 13,3 9,3 15 8 22 12 - 1015,7 10
10.07.2020 12:00:00 13,0 9,0 22 12 - - N 1015,0 10
10.07.2020 11:00:00 12,8 9,7 37 20 40 21 N 1013,8 10
10.07.2020 10:00:00 13,1 10,5 31 17 36 19 N 1013,0 10
10.07.2020 09:00:00 13,7 8,3 26 14 32 18 N 1012,5 10
10.07.2020 08:00:00 13,6 9,2 34 18 32 18 N 1011,6 10
10.07.2020 07:00:00 13,7 9,6 34 18 36 19 N 1011,3 10
10.07.2020 06:00:00 13,7 10,1 41 22 43 23 N 1010,6 10
10.07.2020 05:00:00 13,9 10,7 44 24 43 23 NNE 1010,3 10
10.07.2020 04:00:00 14,0 11,8 28 15 32 18 NNE 1010,0 10
10.07.2020 03:00:00 13,9 11,5 31 17 32 18 NE 1010,7 10
10.07.2020 02:00:00 13,7 11,3 34 18 36 19 NE 1010,5 10
10.07.2020 01:00:00 13,7 10,9 35 19 36 19 ENE 1010,7 10
10.07.2020 00:00:00 14,0 11,2 34 18 36 19 ENE 1010,9 10
09.07.2020 23:00:00 13,9 12,5 37 20 36 19 - 1010,8 10
09.07.2020 22:00:00 14,1 12,7 35 19 36 19 - 1010,8 10
09.07.2020 21:00:00 14,4 12,7 37 20 36 19 ENE 1010,8 10
09.07.2020 20:00:00 14,6 12,6 37 20 36 19 - 1011,0 10
09.07.2020 19:00:00 14,5 13,1 34 18 32 18 - 1011,5 10
09.07.2020 18:00:00 14,1 13,1 34 18 36 19 - 1011,5 10
09.07.2020 17:00:00 14,3 12,5 39 21 43 23 - 1011,9 10
09.07.2020 16:00:00 14,4 12,2 44 24 47 25 - 1011,5 10
09.07.2020 15:00:00 14,1 12,9 48 26 47 25 - 1011,4 10
09.07.2020 14:00:00 14,1 13,1 44 24 47 25 - 1011,0 10
09.07.2020 13:00:00 14,2 13,0 50 27 47 25 - 1010,6 10
09.07.2020 12:00:00 14,3 13,0 48 26 50 27 - 1010,0 10
09.07.2020 11:00:00 14,2 13,1 40 21 54 29 - 1010,0 13
09.07.2020 10:00:00 14,4 13,7 28 15 43 23 ENE 1009,9 4,9
09.07.2020 09:00:00 14,4 14,0 35 19 54 29 - 1009,8 3,5
09.07.2020 08:00:00 14,2 13,8 35 19 50 27 - 1009,9 3,9
09.07.2020 07:00:00 14,1 13,6 41 22 40 21 - 1010,7 4,7
09.07.2020 06:00:00 13,7 13,1 37 20 36 19 - 1011,6 5
09.07.2020 05:00:00 13,9 13,2 37 20 40 21 - 1012,5 5
09.07.2020 04:00:00 14,0 12,6 37 20 36 19 - 1013,0 10
09.07.2020 03:00:00 13,9 12,4 34 18 32 18 - 1014,2 9
09.07.2020 02:00:00 14,1 11,7 29 16 29 16 - 1014,9 10
09.07.2020 01:00:00 14,9 11,0 28 15 29 16 - 1015,4 10

tt = Température de l'air
td = dewpoint
ff = Vitesse du vent
fx = gusts
dd = Direction du vent
ppp = reduced air pressure
vv = visibility

stations d'obs. à proximité